STARLINK-4573 (53623 NORAD) Tracking and Keplerian Element Data

This shows tracking and keplerian element data for the satellite.

Feedback or suggestion? Click here.




ElementValue
Catalog53623
NameSTARLINK-4573
Epoch Orbit1323
Epoch Day325.25001157
Epoch Year2022
RAAN240.9286
Inclination53.2145
Eccentricity0.0001836
Argument of Perigee53.4971
Mean Anonmoly77.6829
Mean Motion15.0880157
Decay Rate0.00052888
L11 53623U 22104AM 22325.25001157 .00052888 00000+0 33198-2 0 9999
L22 53623 53.2145 240.9286 0001836 53.4971 77.6829 15.08801570 13232



Live tracking and technical data element details for STARLINK-4573 (NORAD 53623). STARLINK-4573 can be tracked NOW for your location showing map with azimuth and elevation plus other details from your city location.







IsCatalogInMostPopularTable: catalog: 53623, numindb: 2
Update: records affected: 1



GetName: 53623 STARLINK-4573

Hit Count: updated at: Thu, 08 Dec 2022 20:26:21 GMT